Home   Weather   Ajmān   Past weeks
Flag for United Arab Emirates

Past Weather in Ajmān, Ajman, United Arab Emirates — Yesterday and Last 2 Weeks

Now
102 °F

Duststorm.


Feels Like: 119 °F
Forecast: 101 / 90 °F
Wind: 13 mph from West

Location: Sharjah International Airport

Current Time: Jul 22, 2019 at 4:27:19 pm

Latest Report: Jul 22, 2019 at 3:00 pm


Visibility: 3 mi

Pressure: 29.42 "Hg

Humidity: 45%

Dew Point: 77 °F

Location of AjmānLocation

Past Weather in Ajmān — Graph

°F

Ajmān Temperature Yesterday

Maximum temperature yesterday: 106 °F (at 12:00 pm)
Minimum temperature yesterday: 90 °F (at 3:00 am)
Average temperature yesterday: 97 °F

High & Low Weather Summary for the Past Weeks

 TemperatureHumidityPressure
High109 °F (Jul 7, 3:00 pm)80% (Jul 19, 1:00 am)29.53 "Hg (Jul 19, 1:00 am)
Low81 °F (Jul 11, 5:00 am)9% (Jul 17, 1:00 pm)29.30 "Hg (Jul 7, 4:00 pm)
Average96 °F53%29.42 "Hg
* Reported Jul 7 3:00 pm — Jul 22 3:00 pm, Ajmān. Weather by CustomWeather, © 2019

Note: Actual official high and low records may vary slightly from our data, if they occured in-between our weather recording intervals... More about our weather records

Advertising

Ajmān Weather History for the Previous 24 Hours

Scroll right to see more
 ConditionsComfort  
Time TempWeatherWind HumidityBarometerVisibility
3:00 pm
Mon, Jul 22
102 °FDuststorm.13 mph45%29.42 "Hg3 mi
2:00 pm102 °FClear.12 mph48%29.42 "Hg4 mi
1:00 pm104 °FClear.12 mph43%29.45 "Hg4 mi
12:00 pm106 °FPassing clouds.5 mph36%29.45 "HgN/A
11:00 am102 °FClear.6 mph40%29.47 "Hg5 mi
10:00 am100 °FClear.12 mph45%29.47 "Hg5 mi
9:00 am99 °FSunny.13 mph47%29.47 "Hg10 mi
8:00 am97 °FSunny.13 mph47%29.47 "Hg10 mi
7:00 am93 °FSunny.8 mph59%29.47 "Hg10 mi
6:00 am91 °FSunny.3 mph63%29.45 "Hg10 mi
5:00 am91 °FClear.3 mph63%29.45 "Hg10 mi
4:00 am93 °FClear.6 mph59%29.45 "Hg10 mi
3:00 am93 °FClear.6 mph63%29.47 "Hg10 mi
2:00 am93 °FClear.5 mph63%29.47 "Hg4 mi
1:00 am95 °FClear.5 mph56%29.47 "Hg4 mi
12:00 am97 °FClear.2 mph47%29.47 "Hg4 mi
11:00 pm
Sun, Jul 21
97 °FClear.3 mph44%29.47 "Hg4 mi
10:00 pm97 °FClear.No wind44%29.47 "Hg4 mi
9:00 pm99 °FClear.5 mph42%29.47 "Hg4 mi
8:00 pm99 °FClear.7 mph47%29.47 "Hg4 mi
7:00 pm99 °FClear.8 mph50%29.45 "Hg4 mi
6:00 pm100 °FClear.9 mph45%29.42 "Hg4 mi
5:00 pm100 °FClear.9 mph47%29.42 "Hg4 mi
4:00 pm100 °FClear.14 mph47%29.45 "Hg4 mi
Weather by CustomWeather, © 2019

See weather overview